RH
81 82 83 84 84 83 83 82 82 83 84 82 83 84 84 86 84 34 9 18 26 79 79 24 24 29 27 26 26 26 62 43 20 19 21 17 20 19 16 20 19 19 22 25 26
84 82 82 83 83 84 84 83 83 83 84 84 83 84 84 87 29 9 30 47 74 80 35 22 26 29 30 25 24 28 50 32 18 15 18 17 18 18 19 24 27 22 24 25 26
86 85 82 82 82 83 84 84 83 83 84 84 83 83 84 68 19 12 45 57 77 69 22 15 19 25 27 21 24 30 52 16 15 15 15 17 18 16 18 24 23 26 28 27 27
87 86 84 82 82 83 83 84 84 84 82 84 84 83 84 30 10 19 46 69 79 32 20 14 18 25 28 25 20 26 18 18 16 16 15 17 16 17 18 20 20 22 25 26 27
88 90 88 84 83 83 84 84 85 85 84 84 83 83 52 14 6 24 63 69 32 24 15 13 19 22 24 21 21 33 20 20 20 17 16 16 19 19 20 20 21 23 26 26 25
87 88 90 88 85 86 86 85 86 86 86 84 83 86 32 8 6 14 19 28 15 12 10 11 13 16 18 19 23 24 18 18 21 20 20 19 19 20 23 22 25 26 26 24 24
87 87 87 90 85 84 85 86 87 87 87 85 81 48 12 8 9 12 13 15 8 7 7 7 9 11 16 19 15 18 20 19 16 20 20 23 22 30 22 24 28 26 26 25 24
91 88 87 90 88 85 86 88 88 86 78 79 79 35 8 6 9 12 9 10 8 6 6 6 6 10 16 16 17 28 25 28 23 16 19 26 51 23 21 24 29 27 26 28 26
91 90 89 90 90 89 90 88 85 76 76 76 44 25 7 18 10 9 6 7 7 7 7 8 6 12 15 19 20 27 36 24 22 13 16 25 48 24 21 24 29 28 27 28 27
92 91 88 91 89 89 90 88 80 76 61 29 17 17 8 6 8 7 6 6 7 7 8 7 8 12 14 16 21 22 26 22 27 19 17 34 72 32 21 25 27 27 28 28 27
94 90 88 90 87 89 67 27 25 24 19 12 5 12 6 8 7 8 7 5 5 8 8 8 10 11 11 13 14 18 21 34 26 18 19 23 35 20 20 21 28 26 28 28 26
95 90 90 88 88 89 55 14 14 13 12 7 7 10 8 6 7 6 6 7 7 8 7 10 10 8 7 9 12 18 20 42 31 15 15 22 24 19 18 19 24 24 25 24 22
94 90 91 89 88 56 16 14 11 11 13 7 5 7 7 6 5 5 5 5 6 7 7 9 7 7 10 13 15 15 15 16 17 15 14 16 19 25 18 18 18 19 22 22 22
94 92 90 90 58 13 14 14 10 11 13 8 7 7 6 6 6 4 4 4 5 5 7 8 7 11 14 13 12 13 11 15 16 16 19 15 30 22 18 19 20 20 20 21 21
95 93 88 90 33 14 15 10 9 11 16 6 7 5 5 6 6 6 4 4 6 6 6 8 10 11 14 11 9 10 9 14 16 16 16 19 20 28 22 20 19 18 20 20 21
95 92 86 48 30 14 12 11 11 13 16 8 7 7 6 5 4 4 5 5 5 6 7 6 6 8 8 9 10 9 11 13 13 13 20 19 17 18 20 21 18 17 18 20 20
94 88 75 29 16 11 12 13 14 13 8 7 7 5 4 4 5 5 6 6 6 10 9 7 6 6 6 9 9 10 10 15 17 15 15 11 14 16 16 13 15 21 17 19 19
91 87 61 23 15 14 15 15 22 10 9 5 5 4 5 5 5 5 6 6 6 5 6 7 8 5 5 7 9 9 7 9 18 11 10 10 14 11 10 10 11 10 16 17 19
88 23 19 16 15 16 18 16 14 11 8 7 5 6 6 6 6 6 6 6 5 6 10 7 7 4 4 4 5 8 9 5 7 6 8 7 9 9 10 11 10 10 10 15 17
36 17 16 14 14 16 17 22 12 8 7 6 8 6 9 8 8 6 8 8 8 7 7 8 10 5 4 5 5 6 6 7 7 16 15 9 12 12 13 13 12 10 12 15 17
32 18 16 12 14 16 16 12 11 8 8 8 8 10 9 8 7 7 8 10 10 8 7 6 7 8 7 7 6 6 9 9 5 6 10 11 8 8 11 15 12 11 13 12 13
20 20 16 14 19 12 12 12 30 9 9 9 10 9 11 11 10 9 12 14 13 10 9 7 7 10 8 6 6 7 7 6 9 15 8 7 15 12 15 21 25 24 30 28 24
24 19 15 14 20 15 12 12 10 10 10 10 10 11 12 12 17 13 15 14 14 12 15 11 8 10 12 8 8 8 7 9 8 8 13 11 14 23 28 30 37 36 37 41 34
28 25 18 17 16 18 16 14 13 11 11 11 12 12 13 15 16 18 16 14 14 14 40 28 9 13 10 15 10 11 9 9 8 12 12 11 12 38 44 48 50 51 45 45 49
27 25 24 23 19 17 15 13 12 15 12 13 15 13 14 17 15 17 14 16 13 33 20 13 17 13 11 11 10 10 10 9 11 10 11 10 11 41 51 59 64 62 57 51 52
32 30 24 22 23 22 25 19 14 12 14 15 17 13 14 18 17 16 15 17 17 15 16 11 19 19 18 10 10 11 9 9 9 9 10 12 15 32 41 42 54 64 67 61 60
28 31 30 34 23 22 20 19 16 13 15 14 14 17 16 15 14 13 12 13 16 20 19 17 17 22 23 12 12 14 11 10 10 9 9 13 22 29 36 46 58 64 70 69 68
Wind_Speed
18 19 19 18 17 15 15 16 17 17 16 15 14 14 13 14 19 10 10 4 2 14 9 11 10 10 10 9 7 7 10 4 6 14 14 15 14 11 15 13 5 4 18 21 19
18 18 19 19 19 19 17 16 15 16 16 15 14 14 13 12 12 12 7 7 8 10 11 11 11 10 12 8 7 9 6 7 13 13 15 16 14 16 13 12 9 13 22 20 18
19 19 19 18 18 18 18 17 16 16 15 15 14 14 13 13 12 10 5 7 10 12 17 12 7 10 14 7 10 17 8 10 13 10 15 11 14 14 12 13 13 18 18 19 16
18 18 19 20 20 18 18 18 16 16 16 14 15 14 13 13 2 9 6 7 11 14 16 10 12 13 13 9 6 5 5 7 13 5 13 12 12 13 5 18 17 19 19 18 16
18 19 19 19 20 21 19 17 18 17 15 14 14 13 11 10 3 11 10 10 15 13 12 12 13 15 10 2 8 11 11 4 3 8 10 10 8 10 13 15 18 19 18 17 15
20 19 18 19 20 20 20 19 17 17 14 11 12 10 10 10 3 12 13 15 14 14 11 10 10 7 12 6 3 12 5 2 5 7 3 11 14 11 17 16 18 18 17 15 15
20 20 20 19 20 21 20 20 18 15 13 9 7 8 12 5 3 10 13 15 10 10 8 9 7 10 5 6 4 3 2 2 8 15 15 9 13 21 18 18 18 17 15 14 14
18 20 21 19 19 20 21 19 17 12 6 4 4 11 2 4 6 10 10 10 7 7 8 4 7 16 14 7 7 6 3 4 21 10 8 2 9 19 17 17 18 17 15 13 14
17 19 21 20 20 19 18 19 12 7 5 5 8 10 7 5 11 12 11 11 10 6 6 6 11 14 11 12 14 12 7 10 15 12 10 10 1 15 18 17 15 16 16 15 15
17 18 22 21 19 19 19 11 5 5 9 9 8 9 11 13 10 12 9 4 10 9 8 10 10 13 13 15 15 16 21 16 7 6 11 21 5 23 14 17 16 16 16 15 16
17 19 22 21 20 18 17 7 8 9 13 9 6 4 11 8 7 12 11 9 8 12 12 15 12 15 18 19 6 13 5 2 6 10 8 5 26 14 13 16 16 16 15 16 16
18 20 22 23 21 19 9 7 7 6 7 5 4 6 2 11 12 13 14 11 11 14 15 11 16 15 18 15 14 10 15 27 15 8 9 10 12 9 14 11 16 16 16 16 16
17 21 22 22 24 9 9 6 6 6 9 9 8 9 12 12 12 15 15 16 12 15 16 13 13 14 4 6 9 17 14 11 8 13 12 10 10 14 12 10 10 13 15 16 17
17 19 20 23 8 2 6 2 6 2 8 12 13 6 7 9 5 12 17 9 11 15 12 16 4 4 10 15 15 17 15 5 12 10 14 15 6 8 13 15 13 13 16 16 17
18 18 17 10 11 10 7 4 5 6 8 16 12 11 16 13 14 11 6 8 13 12 10 14 10 12 13 15 13 15 5 11 10 14 16 11 11 9 13 13 16 16 16 17 18
19 18 18 6 8 8 5 4 7 9 3 10 10 12 14 12 9 11 11 11 7 10 11 10 5 11 14 14 9 14 3 11 14 14 15 17 13 12 12 15 17 18 18 18 20
20 19 10 9 4 1 6 8 9 10 8 12 14 17 18 12 12 16 15 14 11 12 12 13 11 14 9 12 11 16 11 10 13 14 13 17 18 14 7 6 12 10 20 19 18
24 21 8 9 6 7 8 10 10 3 6 6 11 14 15 14 13 15 13 12 8 10 10 13 15 16 13 18 12 16 18 12 16 12 15 18 17 14 12 7 4 5 11 19 19
30 7 9 6 6 6 10 11 6 3 4 9 11 13 10 10 5 11 13 13 7 7 10 6 3 13 9 12 15 16 18 20 21 19 10 11 19 10 7 9 8 6 9 12 19
9 8 5 6 6 8 10 16 3 3 3 8 15 14 13 16 11 13 9 5 6 5 9 5 5 10 11 7 10 17 5 15 11 16 15 13 12 12 18 11 9 7 6 11 11
8 6 9 8 6 8 12 9 4 5 8 9 14 11 12 12 15 14 11 8 2 4 8 12 11 12 9 12 15 13 12 13 17 14 13 12 9 12 7 5 12 16 5 2 8
8 7 8 5 9 10 12 3 4 11 9 6 7 11 10 8 11 10 7 4 1 6 11 11 9 9 15 7 7 8 11 19 9 14 10 15 4 13 13 14 8 13 10 10 12
6 9 7 7 10 10 8 5 9 7 10 10 7 5 4 8 4 4 8 3 2 6 8 3 9 8 10 12 7 12 11 9 12 13 12 12 5 14 11 13 12 9 7 8 9
6 6 7 8 12 13 9 12 11 6 4 4 4 7 10 8 3 5 7 5 1 1 6 4 15 15 5 7 6 17 7 9 11 10 11 13 12 19 13 10 13 12 10 8 10
6 6 7 5 11 12 16 11 15 11 8 9 8 11 11 8 9 10 9 6 8 6 6 8 14 13 16 5 8 4 8 9 11 13 14 6 12 18 10 7 5 8 10 8 9
6 6 4 11 10 12 10 15 16 16 13 13 10 7 5 8 7 4 9 11 8 8 11 11 12 10 12 10 11 12 10 11 11 11 10 13 14 15 7 6 6 7 9 10 7
4 6 6 10 14 14 14 16 16 12 5 6 10 8 9 6 4 6 5 7 6 7 8 10 10 8 15 18 15 17 14 14 14 14 14 14 7 11 7 5 6 4 7 8 8
Wind_Direction
342 340 338 337 334 332 331 329 326 323 321 321 320 316 317 317 299 221 249 49 47 163 222 202 211 214 222 247 234 270 360 311 116 118 122 118 111 87 95 127 123 66 136 123 141
340 340 339 336 334 332 331 328 323 320 320 318 315 310 313 320 280 249 97 131 163 175 213 196 204 201 231 245 204 248 129 239 90 115 125 120 119 127 138 119 118 108 107 130 146
341 339 338 335 333 330 328 327 324 320 318 315 308 302 304 303 263 94 104 147 190 203 245 229 249 230 252 225 232 95 249 101 110 98 136 131 125 149 136 138 127 131 136 147 153
336 336 336 334 333 330 327 324 321 316 312 307 300 296 302 261 301 61 131 185 189 214 245 236 237 227 245 208 220 203 29 95 114 198 125 157 140 123 105 101 123 136 145 150 160
337 337 337 332 329 327 326 323 319 312 307 300 290 294 280 218 53 95 140 162 181 209 223 225 222 239 258 186 209 331 96 25 171 183 152 111 146 110 102 107 127 139 151 156 159
339 336 334 333 330 326 323 323 318 310 302 293 284 299 243 242 96 131 159 174 200 205 208 233 246 279 304 276 226 144 68 41 256 136 169 189 134 186 120 128 135 148 157 164 149
337 336 337 330 328 324 322 321 317 305 292 280 272 268 269 55 167 162 164 199 175 216 201 240 306 262 260 209 76 65 208 85 249 173 156 235 155 139 137 140 146 157 163 159 157
332 333 335 325 323 323 321 318 312 303 290 206 228 255 7 121 173 175 183 184 201 227 272 298 236 265 266 71 197 137 331 158 273 201 171 134 305 132 147 151 156 160 161 165 163
330 330 330 324 323 322 317 314 299 279 248 210 221 227 136 120 194 182 190 178 183 201 210 270 231 238 220 236 198 165 159 237 214 187 169 143 202 176 164 153 161 165 163 171 168
329 329 328 322 324 320 314 290 311 259 213 219 262 253 161 193 163 168 198 208 188 181 185 205 217 224 238 223 214 184 162 212 207 190 238 115 263 256 179 159 160 170 169 176 175
322 330 328 323 322 323 309 203 203 192 226 311 133 332 132 112 142 184 172 194 205 203 202 205 215 212 213 226 247 312 155 21 184 223 264 271 187 148 169 169 163 169 176 179 181
319 328 327 323 320 318 278 273 37 351 279 189 243 270 258 178 181 181 185 204 204 212 219 192 225 224 237 228 252 219 231 185 199 203 258 207 227 194 166 197 171 179 173 182 183
318 324 325 323 318 278 268 41 335 308 249 140 198 200 181 211 188 173 199 215 201 227 203 215 204 237 172 232 239 241 242 179 210 175 236 260 199 152 186 195 192 171 176 185 182
315 323 325 322 294 358 226 97 294 300 259 141 180 169 184 242 169 151 208 207 212 226 195 237 155 133 210 231 219 238 238 286 183 225 214 205 236 224 194 185 199 184 185 186 180
313 319 320 321 319 255 54 290 317 239 248 145 144 128 167 217 123 189 195 212 236 225 205 213 160 205 220 222 219 245 231 209 251 244 266 212 235 188 242 195 190 199 199 191 179
312 313 322 202 219 287 270 279 236 233 178 152 144 187 185 210 197 141 182 248 307 212 223 267 203 215 224 218 220 250 156 251 245 251 231 241 257 186 208 222 201 194 194 202 179
310 313 292 310 4 345 267 235 223 259 124 148 178 178 197 185 156 173 180 192 189 199 199 209 193 224 256 199 196 236 206 212 217 224 242 232 225 233 195 184 223 189 187 192 190
308 315 189 265 305 264 250 232 254 14 182 114 181 192 207 170 174 181 188 179 261 260 192 191 189 199 192 235 192 218 228 232 210 229 230 223 252 234 184 202 193 253 190 185 197
308 201 234 155 211 260 254 233 237 167 100 189 197 198 183 184 219 195 203 207 150 259 315 193 148 163 198 222 247 194 227 254 270 278 281 248 201 237 239 221 225 211 217 199 189
308 270 166 151 193 245 250 259 41 344 252 224 199 200 185 200 213 206 188 61 151 260 291 358 152 187 179 243 236 264 294 224 242 258 261 237 225 207 197 191 213 221 221 195 199
262 241 112 166 228 237 245 244 155 166 231 225 222 183 225 194 222 203 182 117 255 199 267 285 252 148 150 208 210 200 233 244 251 219 252 239 245 237 130 47 196 204 311 326 215
285 251 124 179 236 230 244 220 350 166 198 199 303 222 206 180 225 199 169 54 277 292 223 233 285 182 202 115 330 316 226 225 239 231 251 265 42 33 80 93 4 38 35 356 320
280 298 141 221 248 232 210 219 218 183 197 191 175 254 304 204 156 255 89 79 246 233 356 301 249 230 154 173 207 250 232 272 264 269 252 239 169 102 73 87 56 46 27 18 339
279 266 185 210 266 287 256 224 198 284 145 273 136 176 181 180 212 187 152 161 137 359 347 299 267 282 282 17 338 193 210 233 261 221 240 246 233 126 94 41 53 5 14 31 21
243 267 15 253 225 240 263 229 202 176 217 203 199 208 208 195 192 193 164 147 196 142 235 254 264 274 274 125 285 316 199 202 241 265 277 246 309 77 86 80 30 28 340 22 19
294 312 334 270 289 276 234 247 222 186 188 195 245 197 172 240 217 239 203 193 202 185 235 237 254 280 265 259 240 256 226 245 258 273 276 278 287 91 89 76 39 22 4 352 34
293 274 267 282 242 240 241 222 228 180 214 270 217 174 212 109 52 8 3 340 22 257 233 251 256 218 253 246 236 242 247 254 256 246 249 249 22 15 347 61 9 19 355 339 354